ATHENA-FIDUS

Last updated on Wed Jul 09 2025 00:02:45 GMT+0000 (Coordinated Universal Time)

1 39509U 14006B 25189.42752750 .00000170 00000+0 00000+0 0 9990 2 39509 0.0381 104.3422 0001298 19.0193 354.9625 1.00272951 41634
UTC large
Height (km)
Speed (km/s)
/
Latitude / Longitude
Inclination (degrees)
Orbital Period (minutes)
Azimuth
Elevation
Range (km)
Doppler Factor

Next 0 passes for location: London (51.5072 / 0.1276)

Sorry there are no passes over London.